{"data":{"norad_id":53660,"epoch":"2026-05-25T03:24:52.972128Z","epoch_age_seconds":66223,"freshness":"FRESH","line1":"1 53660U 22105N   26145.14227977 -.00000130  00000+0 -49786-5 0  9991","line2":"2 53660  97.4521  25.1271 0001814  82.5410 277.6024 15.05657111204738","mean_motion":15.05657111,"eccentricity":0.0001814,"inclination_deg":97.4521,"raan_deg":25.1271,"arg_perigee_deg":82.541,"mean_anomaly_deg":277.6024,"bstar":-4.9786e-6,"rev_number":20473,"period_min":95.639305222927,"perigee_km":548.23267041904,"apogee_km":550.74601325586,"semimajor_km":6927.6263418375,"source":"CELESTRAK","updated_at":"2026-05-25T13:38:17.486547Z"}}